Location: Seattle
(47.6064°N, 122.3308°W)
Time: 14:08:19
(UTC-08:00)

S-56A Canister/Altair - Pass Details

Date: 03 October 2022
Orbit: 638 x 2494 km, 38.9° (Epoch: 02 December)

Event Time Altitude Azimuth Distance (km) Brightness Sun altitude
Exits shadow 04:24:54 45° 198° (SSW) 1,774 9.0 -28.0°
Maximum altitude 04:25:44 47° 182° (S) 1,697 9.0 -27.9°
Drops below altitude 10° 04:32:14 10° 111° (ESE) 2,794 10.9 -26.9°
Sets 04:34:32 0° 104° (ESE) 3,555 11.7 -26.6°
